EW4171 Weather Reports


time (UTC)temp
C
wind
direction
speed
KPH
gust
KPH
rain 1hr
cm
rain 24hr
cm
rain mn
cm
humidity
%
barometer
mb
20260906221520 24 173 11.3 20.9 0.00 0.00 0.00 23 1008.3
20260906220017 25 200 6.4 20.9 0.00 0.00 0.00 23 1008.5
20260906214519 24 188 8.0 19.3 0.00 0.00 0.00 24 1008.7
20260906213016 25 201 9.7 19.3 0.00 0.00 0.00 23 1008.9
20260906211513 24 295 1.6 9.7 0.00 0.00 0.00 23 1009.2
20260906210012 24 16 3.2 8.0 0.00 0.00 0.00 23 1009.2
20260906204510 24 208 0.0 6.4 0.00 0.00 0.00 24 1009.6
20260906203009 24 205 3.2 9.7 0.00 0.00 0.00 24 1009.8
20260906201508 23 218 6.4 9.7 0.00 0.00 0.00 21 1010.1
20260906200007 24 183 3.2 12.9 0.00 0.00 0.00 21 1010.2
20260906194506 25 197 6.4 12.9 0.00 0.00 0.00 20 1010.4
20260906193005 26 222 3.2 14.5 0.00 0.00 0.00 20 1010.4
20260906191504 25 181 1.6 14.5 0.00 0.00 0.00 20 1010.7
20260906190113 24 183 6.4 11.3 0.00 0.00 0.00 22 1010.9
20260906184557 23 51 4.8 14.5 0.00 0.00 0.00 23 1011.0
20260906183058 23 302 3.2 16.1 0.00 0.00 0.00 22 1011.3
20260906181554 22 57 6.4 14.5 0.00 0.00 0.00 25 1011.4
20260906180049 22 45 4.8 11.3 0.00 0.00 0.00 27 1011.6
20260906174547 22 5 4.8 14.5 0.00 0.00 0.00 29 1011.5
20260906173045 21 314 4.8 12.9 0.00 0.00 0.00 33 1011.8
20260906171542 20 321 3.2 9.7 0.00 0.00 0.00 34 1012.0
20260906170038 19 6 1.6 9.7 0.00 0.00 0.00 37 1012.1
20260906164537 19 11 3.2 6.4 0.00 0.00 0.00 38 1012.2
20260906163032 18 53 1.6 9.7 0.00 0.00 0.00 40 1012.3
20260906161529 18 28 4.8 11.3 0.00 0.00 0.00 43 1012.2
20260906160025 17 65 4.8 8.0 0.00 0.00 0.00 46 1012.1
20260906154521 16 60 0.0 0.0 0.00 0.00 0.00 54 1012.0
20260906153026 16 52 0.0 3.2 0.00 0.00 0.00 58 1012.2
20260906151514 12 140 0.0 1.6 0.00 0.00 0.00 66 1012.2
20260906150009 10 326 0.0 0.0 0.00 0.00 0.00 75 1012.4
20260906144508 8 326 0.0 1.6 0.00 0.00 0.00 85 1012.5
20260906143009 7 166 0.0 1.6 0.00 0.00 0.00 88 1012.6
20260906141605 6 166 0.0 0.0 0.00 0.00 0.00 90 1012.6
20260906140005 6 166 0.0 0.0 0.00 0.00 0.00 89 1012.6
20260906134507 5 136 0.0 3.2 0.00 0.00 0.00 92 1012.6
20260906133002 5 213 0.0 0.0 0.00 0.00 0.00 92 1012.6
20260906131600 5 213 0.0 1.6 0.00 0.00 0.00 92 1012.3
20260906130059 5 213 0.0 1.6 0.00 0.00 0.00 92 1012.0
20260906124556 5 214 0.0 0.0 0.00 0.00 0.00 92 1011.8
20260906123055 5 214 0.0 0.0 0.00 0.00 0.00 91 1011.8
20260906121553 5 214 0.0 0.0 0.00 0.00 0.00 92 1011.5
20260906120051 5 214 0.0 0.0 0.00 0.00 0.00 91 1011.3
20260906114604 5 213 0.0 0.0 0.00 0.00 0.00 90 1011.4
20260906113051 5 214 0.0 0.0 0.00 0.00 0.00 90 1011.5
20260906111553 5 214 0.0 0.0 0.00 0.00 0.00 91 1011.5
20260906110045 5 214 0.0 0.0 0.00 0.00 0.00 90 1011.4
20260906104556 5 214 0.0 0.0 0.00 0.00 0.00 90 1011.4
20260906103041 5 213 0.0 0.0 0.00 0.00 0.00 90 1011.2
20260906101540 6 214 0.0 0.0 0.00 0.00 0.00 90 1011.1
20260906100040 6 214 0.0 1.6 0.00 0.00 0.00 89 1011.0
20260906094538 6 214 0.0 1.6 0.00 0.00 0.00 90 1011.0
20260906093036 6 214 0.0 0.0 0.00 0.00 0.00 89 1011.1
20260906091536 6 214 0.0 1.6 0.00 0.00 0.00 89 1011.1
20260906090032 6 214 0.0 0.0 0.00 0.00 0.00 88 1010.9
20260906084530 6 214 0.0 1.6 0.00 0.00 0.00 88 1010.9
20260906083029 6 214 0.0 1.6 0.00 0.00 0.00 88 1010.8
20260906081527 6 214 0.0 0.0 0.00 0.00 0.00 87 1010.7
20260906080026 7 214 0.0 0.0 0.00 0.00 0.00 86 1010.4
20260906074527 7 214 0.0 0.0 0.00 0.00 0.00 86 1010.5
20260906073025 7 214 0.0 0.0 0.00 0.00 0.00 86 1010.6
20260906071521 7 214 0.0 1.6 0.00 0.00 0.00 85 1010.5
20260906070017 8 214 0.0 1.6 0.00 0.00 0.00 84 1010.4
20260906064515 8 214 0.0 0.0 0.00 0.00 0.00 84 1010.5
20260906063014 8 214 0.0 0.0 0.00 0.00 0.00 84 1010.3
20260906061511 8 214 0.0 1.6 0.00 0.00 0.00 83 1010.1
20260906060010 9 214 0.0 1.6 0.00 0.00 0.00 81 1009.8
20260906054509 9 217 0.0 0.0 0.00 0.00 0.00 81 1009.8
20260906053006 10 217 0.0 3.2 0.00 0.00 0.00 80 1009.7
20260906051506 10 217 0.0 1.6 0.00 0.00 0.00 79 1009.5
20260906050005 10 217 0.0 0.0 0.00 0.00 0.00 79 1009.4
20260906044505 10 217 0.0 0.0 0.00 0.00 0.00 77 1009.2
20260906043005 11 217 0.0 0.0 0.00 0.00 0.00 76 1009.1
20260906041506 11 217 0.0 3.2 0.00 0.00 0.00 75 1009.0
20260906040004 11 183 0.0 3.2 0.00 0.00 0.00 75 1009.1
20260906034506 11 174 0.0 1.6 0.00 0.00 0.00 74 1008.9
20260906033003 11 174 0.0 0.0 0.00 0.00 0.00 74 1008.8
20260906031503 12 174 0.0 0.0 0.00 0.00 0.00 74 1008.5
20260906030000 13 174 0.0 0.0 0.00 0.00 0.00 72 1008.2
20260906024616 13 174 0.0 0.0 0.00 0.00 0.00 70 1007.8
20260906023100 14 174 0.0 0.0 0.00 0.00 0.00 69 1007.7
20260906021600 15 174 0.0 0.0 0.00 0.00 0.00 66 1007.4
20260906020100 15 174 0.0 0.0 0.00 0.00 0.00 64 1007.1
20260906014608 15 167 0.0 0.0 0.00 0.00 0.00 65 1007.0
20260906013058 16 169 0.0 0.0 0.00 0.00 0.00 63 1006.8
20260906011559 17 169 0.0 0.0 0.00 0.00 0.00 59 1006.5
20260906010057 18 157 0.0 3.2 0.00 0.00 0.00 55 1006.3
20260906004557 18 155 0.0 0.0 0.00 0.00 0.00 55 1006.3
20260906003056 20 155 0.0 0.0 0.00 0.00 0.00 51 1006.2
20260906001553 20 155 0.0 6.4 0.00 0.00 0.00 45 1006.2
20260906000052 20 203 0.0 4.8 0.00 0.00 0.00 46 1006.2
20260905234606 20 195 0.0 6.4 0.00 0.00 0.00 46 1006.2
20260905233050 20 210 3.2 8.0 0.00 0.00 0.00 47 1006.0
20260905231553 20 204 0.0 4.8 0.00 0.00 0.00 50 1006.3
20260905230105 20 255 0.0 4.8 0.00 0.00 0.00 52 1006.5
20260905224546 21 219 0.0 4.8 0.00 0.00 0.00 44 1006.7
20260905223045 21 300 0.0 12.9 0.00 0.00 0.00 43 1006.3